This demonstration page uses our WeatherBlox Daily Observations layout. Learn more.

Left ArrowRight Arrow

39.92423, -83.80882

Hourly Observations for May 23, 2020

Temp ( °F °C ) Dew Point ( °F °C ) Humidity (%) Winds ( mph kmh ) Pressure ( in mb ) Visibility ( mi km ) Precip ( " mm )
12:56 am 00:56 Clear 56 13.3 56 13.3 100 100 E 7 11 30.02 1017 10 16.0934 0 0
1:56 am 01:56 Clear 57 13.9 57 13.9 100 100 E 3 6 30.01 1016 10 16.0934 0 0
2:56 am 02:56 Clear 56 13.3 56 13.3 100 100 W 3 6 30.02 1017 8 12.87472 0 0
3:56 am 03:56 Clear with Mist and Fog 54 12.2 54 12.2 100 100 ENE 5 7 30.01 1016 4 6.43736 0 0
4:25 am 04:25 Clear with Mist and Fog 54 12 54 12 100 100 NE 5 7 30.01 1016 1.75 2.816345 0 0
4:28 am 04:28 Clear with Mist and Fog 54 12 54 12 100 100 NE 6 9 30.01 1016 0.75 1.207005 0 0
4:46 am 04:46 Clear with Mist and Fog 54 12 54 12 100 100 E 5 7 30.01 1016 1.25 2.011675 0 0
4:52 am 04:52 Clear with Mist and Fog 54 12 54 12 100 100 E 5 7 30 1016 3 4.82802 0 0
4:56 am 04:56 Clear with Mist and Fog 53 11.7 53 11.7 100 100 E 5 7 30 1016 3 4.82802 0 0
5:04 am 05:04 Clear with Mist and Fog 54 12 54 12 100 100 E 3 6 30 1016 1.5 2.41401 0 0
5:11 am 05:11 Mostly Clear with Mist and Fog 54 12 54 12 100 100 Calm 30.01 1016 1 1.60934 0 0
5:25 am 05:25 Mostly Clear with Fog 54 12 54 12 100 100 Calm 30.01 1016 0.5 0.80467 0 0
5:31 am 05:31 Mostly Clear with Mist and Fog 55 13 55 13 100 100 Calm 30.01 1016 1 1.60934 0 0
5:35 am 05:35 Mostly Clear with Mist and Fog 55 13 55 13 100 100 Calm 30.01 1016 2 3.21868 0 0
5:42 am 05:42 Clear with Mist and Fog 55 13 55 13 100 100 Calm 30.01 1016 4 6.43736 0 0
5:48 am 05:48 Clear with Mist and Fog 55 13 55 13 100 100 Calm 30.01 1016 1 1.60934 0 0
5:50 am 05:50 Clear with Fog 54 12 54 12 100 100 Calm 30.01 1016 0.5 0.80467 0 0
5:52 am 05:52 Mostly Cloudy with Fog 54 12 54 12 100 100 Calm 30.01 1016 0.25 0.402335 0 0
5:56 am 05:56 Mostly Cloudy with Fog 53 11.7 53 11.7 100 100 Calm 30.01 1016 0.25 0.402335 0 0
6:06 am 06:06 Mostly Cloudy with Fog 54 12 54 12 100 100 Calm 30.01 1016 0.5 0.80467 0 0
6:14 am 06:14 Mostly Cloudy with Fog 52 11 52 11 100 100 E 3 6 30.02 1016 0.25 0.402335 0 0
6:22 am 06:22 Mostly Cloudy with Fog 52 11 52 11 100 100 E 3 6 30.03 1017 0.25 0.402335 0 0
6:39 am 06:39 Mostly Cloudy with Mist and Fog 52 11 52 11 100 100 NE 3 6 30.03 1017 0.75 1.207005 0 0
6:42 am 06:42 Mostly Cloudy with Mist and Fog 54 12 54 12 100 100 Calm 30.02 1017 1.25 2.011675 0 0
6:45 am 06:45 Mostly Cloudy with Mist and Fog 54 12 54 12 100 100 Calm 30.02 1017 3 4.82802 0 0
6:56 am 06:56 Partly Cloudy with Mist and Fog 54 12.2 54 12.2 100 100 ENE 5 7 30.02 1017 4 6.43736 0 0
7:56 am 07:56 Partly Cloudy 60 15.6 60 15.6 100 100 E 3 6 30.03 1017 9 14.48406 0 0
8:56 am 08:56 Partly Cloudy 65 18.3 64 17.8 97 97 E 8 13 30.04 1017 10 16.0934 0 0
9:56 am 09:56 Sunny 69 20.6 63 17.2 81 81 SE 6 9 30.06 1018 10 16.0934 0 0
10:56 am 10:56 Mostly Cloudy 71 21.7 62 16.7 73 73 SE 7 11 30.06 1018 10 16.0934 0 0
11:56 am 11:56 Sunny 74 23.3 63 17.2 69 69 SE 8 13 30.06 1018 10 16.0934 0 0
12:56 pm 12:56 Sunny 75 23.9 64 17.8 69 69 SE 6 9 30.05 1018 10 16.0934 0 0
1:56 pm 13:56 Mostly Sunny 77 25 64 17.8 64 64 E 10 17 30.03 1017 10 16.0934 0 0
2:56 pm 14:56 Partly Cloudy 77 25 64 17.8 64 64 SSE 10 17 30.01 1016 10 16.0934 0 0
3:56 pm 15:56 Partly Cloudy 79 26.1 66 18.9 65 65 SE 8 13 29.99 1016 10 16.0934 0 0
4:56 pm 16:56 Mostly Sunny 79 26.1 65 18.3 62 62 SSE 7 11 29.99 1016 10 16.0934 0 0
5:56 pm 17:56 Sunny 77 25 68 20 74 74 SE 5 7 29.99 1016 10 16.0934 0 0
6:09 pm 18:09 Sunny with Nearby Thunderstorms 77 25 66 19 69 69 ESE 5 7 29.94 1014 10 16.0934 0 0
6:24 pm 18:24 Partly Cloudy 75 24 66 19 74 74 SSE 3 6 29.96 1014 10 16.0934 0 0
6:36 pm 18:36 Mostly Cloudy with Nearby Thunderstorms 75 24 68 20 78 78 SSE 3 6 29.96 1014 9 14.48406 0 0
6:56 pm 18:56 Mostly Cloudy with Thunderstorms 76 24.4 69 20.6 79 79 WSW 6 9 30 1016 10 16.0934 0 0
7:05 pm 19:05 Windy with Storms Likely 70 21 70 21 100 100 W 21 33 29.99 1016 9 14.48406 0.001 0.001
7:25 pm 19:25 Cloudy with Nearby Thunderstorms 68 20 68 20 100 100 ESE 9 15 29.97 1015 2.5 4.02335 0 0
7:32 pm 19:32 Cloudy with Nearby Thunderstorms 68 20 68 20 100 100 SE 6 9 29.98 1015 8 12.87472 0 0
7:45 pm 19:45 Partly Cloudy with Light Rain 68 20 68 20 100 100 ESE 7 11 29.96 1015 10 16.0934 0 0
7:56 pm 19:56 Mostly Sunny 67 19.4 67 19.4 100 100 SSE 12 19 29.98 1015 10 16.0934 0 0
8:56 pm 20:56 Clear 67 19.4 67 19.4 100 100 SSE 13 20 29.96 1015 10 16.0934 0 0
9:56 pm 21:56 Clear 69 20.6 67 19.4 93 93 S 9 15 29.98 1015 10 16.0934 0 0
10:56 pm 22:56 Clear 66 18.9 66 18.9 100 100 E 5 7 29.99 1016 10 16.0934 0 0
11:56 pm 23:56 Clear 66 18.9 66 18.9 100 100 ENE 5 7 30 1016 10 16.0934 0 0

Powered by AerisWeather